Regional Weather Roundup
Issued by NWS

Home | Current Version | Previous Version | Graphics & Text | Print | Product List | Glossary On
Versions: 1 2 3 4 5 6 7 8 9 10 11 12 13 14 15 16 17 18 19 20 21 22 23 24 25 26 27 28 29 30 31 32 33 34 35 36 37 38 39 40 41 42 43 44 45 46 47 48 49 50
000
ASUS43 KDMX 020507
RWRIA

WEATHER ROUNDUP FOR IOWA
NATIONAL WEATHER SERVICE DES MOINES IA
1200 AM CDT THU JUL 02 2015

NOTE: "FAIR" INDICATES FEW OR NO CLOUDS BELOW 12,000 FEET WITH NO
SIGNIFICANT WEATHER AND/OR OBSTRUCTIONS TO VISIBILITY.

* - THESE STATIONS ARE NOT NWS STATIONS...THUS NOT UNDER NWS
QUALITY CONTROL.  THEY ALSO DO NOT REPORT WEATHER SUCH
AS PRECIPITATION OR FOG.

IAZ001>003-012>014-020>022-031>034-043>046-020600-
   NORTHWEST IOWA

CITY           SKY/WX    TMP DP  RH WIND       PRES   REMARKS
CARROLL *      CLOUDY    61  54  77 E8        29.97R
CHEROKEE *     CLEAR     61  55  82 NE3       29.99R
DENISON *      CLEAR     63  59  88 E8        29.95R
LE MARS *      MOCLDY    64  57  77 E8        29.98S
ORANGE CITY *  CLEAR     61  55  82 E7        29.99R
SHELDON *      CLOUDY    61  61 100 E8        29.99R
SIOUX CITY     PTCLDY    66  58  75 E7        29.96R
SPENCER        PTCLDY    57  52  83 NE6       30.01R
STORM LAKE *   CLEAR     59  54  82 E9        30.00S
$$

IAZ055>058-069>071-079>083-090>094-020600-
   SOUTHWEST IOWA

CITY           SKY/WX    TMP DP  RH WIND       PRES   REMARKS
ATLANTIC *     CLOUDY    66  61  82 NE8       29.94S
AUDUBON *      CLEAR     63  57  82 NE3       29.97S
CLARINDA *     PTCLDY    70  66  88 VRB7      29.93R
COUNCIL BLFS * PTCLDY    68  66  94 E8        29.93S
CRESTON *      CLEAR     64  59  82 E10       29.94S
HARLAN  *      CLOUDY    66  64  94 E8        29.98R
LAMONI         CLOUDY    69  63  81 E9        29.92F
RED OAK *      MOCLDY    68  64  88 MISG      29.93R
SHENANDOAH *   PTCLDY    70  66  88 NE7       29.92S
$$

IAZ047>049-059>061-072>074-084-020600-
   CENTRAL IOWA

CITY           SKY/WX    TMP DP  RH WIND       PRES   REMARKS
AMES           CLEAR     60  55  83 E8        29.97F
ANKENY *       CLEAR     61  57  88 NE6       29.96S
CHARITON *     CLOUDY    66  61  82 E8        29.95S
DES MOINES     MOCLDY    65  56  72 E9        29.95S
GRINNELL*      PTCLDY    61  57  88 NE9       29.98S
KNOXVILLE *    MOCLDY    64  59  82 E8        29.94S
MARSHALLTOWN   CLEAR     57  54  89 NE6       29.97F
PELLA *        MOCLDY    64  62  91 E5        29.97R
PERRY *          N/A     63  55  77 E9        29.96F
$$

IAZ004>006-015-016-023>025-035-036-020600-
   NORTH CENTRAL IOWA

CITY           SKY/WX    TMP DP  RH WIND       PRES   REMARKS
ALGONA *       CLOUDY    57  54  88 E3        30.01R
CLARION *      PTCLDY    55  54  94 E6        29.99S
ESTHERVILLE    CLEAR     53  52  96 NE5       30.01R
FORT DODGE *   CLEAR     57  52  82 E6        30.00R
MASON CITY     CLEAR     52  50  93 E6        30.02F
FOREST CITY *  CLEAR     54  50  87 E3        30.00F
IOWA FALLS *     N/A     57  54  88 E6        30.00F
$$

IAZ007>011-017>019-026>030-037>042-050>054-066-020600-
   NORTHEAST IOWA

CITY           SKY/WX    TMP DP  RH WIND       PRES   REMARKS
CEDAR RAPIDS   PTCLDY    61  55  81 NE8       29.98R
CHARLES CITY * CLEAR     54  54 100 NE3       30.01F
CLINTON *      MOCLDY    61  54  77 E8        30.01R
DECORAH *        N/A    N/A N/A N/A MISG        N/A
DUBUQUE        CLEAR     56  51  84 NE7       30.00R
MONTICELLO *   CLEAR     57  55  94 CALM      29.99S
OELWEIN *        N/A    N/A N/A N/A MISG        N/A
WATERLOO       PTCLDY    57  54  89 CALM      29.99S
$$

IAZ064-065-067-068-078-020600-
   EAST CENTRAL IOWA

CITY           SKY/WX    TMP DP  RH WIND       PRES   REMARKS
DAVENPORT      MOCLDY    63  54  72 E7        29.98R
IOWA CITY      MOCLDY    63  56  78 NE7       29.98S
MT. PLEASANT * CLOUDY    68  55  64 NE7       29.95S
MUSCATINE *    CLOUDY    66  55  68 NE9       29.96S
QUAD CITIES    MOCLDY    66  53  63 NE10      29.97R
$$

IAZ062-063-075>077-085>089-095>099-020600-
   SOUTHEAST IOWA

CITY           SKY/WX    TMP DP  RH WIND       PRES   REMARKS
BURLINGTON     CLOUDY    67  61  81 NE10      29.93S
FAIRFIELD *    CLOUDY    66  59  77 NE8       29.96R
KEOKUK *       CLOUDY    68  64  88 NE7G13    29.92R
OSKALOOSA *    CLOUDY    64  59  82 NE5       29.97R
CENTERVILLE *  CLOUDY    66  61  82 NE7       29.95S
OTTUMWA        CLOUDY    66  61  84 NE9       29.94R
WASHINGTON *   CLOUDY    64  59  82 NE8       29.97S
$$

ABBREVIATIONS USED IN REMARKS
   TC - TEMPERATURES IN CELSIUS
  WCI - WIND CHILL INDEX
   HX - HEAT INDEX
  VSB - VISIBILITY
$$



USA.gov is the U.S. government's official web portal to all federal, state and local government web resources and services.